sat.trackr.live / text

‹ back to catalog

ION SCV-010

NORAD 56192 · 2023-054Q

PAYLOAD ACTIVE UNKNOWN

§ Identity

Operator
Country
IT
Launch date
2023-04-15
Launch site
AFWTR
Launch vehicle
Mass (kg)
RCS (m²)

External: N2YO · Heavens-Above · Gunter

§ Orbital elements

Epoch: 2026-05-25T03:29:03.685920Z

Period
94.37 min
Inclination
97.3810°
Eccentricity
0.0011151
Mean motion
15.25962312 rev/d
Perigee alt
480.2 km
Apogee alt
495.6 km
Semi-major
6,866.0 km
B*
1.6885e-4
RAAN
34.9401°
Arg perigee
289.2943°
Mean anomaly
70.7089°
Rev number
17,268

§ Raw data

ION SCV-0101 56192U 23054Q   26145.14518155  .00004270  00000+0  16885-3 0  99982 56192  97.3810  34.9401 0011151 289.2943  70.7089 15.25962312172681

JSON: /api/v1/satellites/56192 · /tle

For live sub-satellite position, see the globe view (requires WebGL).

§ Visibility from observer

Set your observer location to see the next 7 days of passes ≥ 10°. The values pass through the URL so the page stays shareable.

No JS? Fill the form by hand. The geolocation button needs JavaScript.

§ Radio — SatNOGS DB

ModeDescriptionDownlinkUplink
FSK AX.100 Mode 5 Mode U - FSK1k2 AX.100 401.415 MHz
BPSK S-Band Transmitter 2.262 GHz

2 transmitters · refreshed weekly from db.satnogs.org